This is the latest recevied weather packets stored in our database for station/object N3HBJ. If no packets are shown the sender has not sent any weather packets the latest 10 day(s).
| Time | Temp. | Humidity | Pressure | Rain* | Wind** | Luminosity | Snow |
|---|---|---|---|---|---|---|---|
| 1777718073 | 0.56° C | 92% | 1015.2 hPa | 0 mm | - | 14 W/m² | - |
| 1777717174 | 0.56° C | 92% | 1015.3 hPa | 0 mm | - | 7 W/m² | - |
| 1777716267 | 1.11° C | 93% | 1015.1 hPa | 0 mm | - | 0 W/m² | - |
| 1777715365 | 0.56° C | 93% | 1014.9 hPa | 0 mm | - | 0 W/m² | - |
| 1777714902 | 0.56° C | 92% | 1014.9 hPa | 0 mm | - | 0 W/m² | - |
| 1777714003 | 0.56° C | 91% | 1014.8 hPa | 0 mm | - | 0 W/m² | - |
| 1777713558 | 0.56° C | 91% | 1014.6 hPa | 0 mm | - | 0 W/m² | - |
| 1777710860 | 1.67° C | 91% | 1014.1 hPa | 0 mm | - | 0 W/m² | - |
| 1777710098 | 2.22° C | 91% | 1014.3 hPa | 0 mm | - | 0 W/m² | - |
| 1777709659 | 2.22° C | 91% | 1014.4 hPa | 0 mm | - | 0 W/m² | - |
| 1777709192 | 2.22° C | 92% | 1014.4 hPa | 0 mm | - | 0 W/m² | - |
| 1777708752 | 2.22° C | 92% | 1014.3 hPa | 0 mm | - | 0 W/m² | - |
| 1777706646 | 1.67° C | 91% | 1014.2 hPa | 0 mm | - | 0 W/m² | - |
| 1777705144 | 2.22° C | 89% | 1013.9 hPa | 0 mm | - | 0 W/m² | - |
| 1777703941 | 2.78° C | 88% | 1013.8 hPa | 0 mm | - | 0 W/m² | - |
| 1777703031 | 3.33° C | 88% | 1013.9 hPa | 0 mm | - | 0 W/m² | - |
| 1777701528 | 3.89° C | 87% | 1014 hPa | 0 mm | - | 0 W/m² | - |
| 1777699721 | 3.89° C | 86% | 1014 hPa | 0 mm | - | 0 W/m² | - |
| 1777699125 | 3.89° C | 86% | 1014 hPa | 0 mm | - | 0 W/m² | - |
| 1777697616 | 4.44° C | 88% | 1014 hPa | 0 mm | - | 0 W/m² | - |
| 1777696108 | 5° C | 89% | 1013.5 hPa | 0.25 mm | - | 0 W/m² | - |
| 1777695807 | 5° C | 89% | 1013.4 hPa | 0.25 mm | - | 0 W/m² | - |
| 1777691298 | 6.11° C | 91% | 1012.7 hPa | 1.27 mm | - | 0 W/m² | - |
| 1777687987 | 6.67° C | 91% | 1012.6 hPa | 2.54 mm | - | 0 W/m² | - |
| 1777685283 | 6.67° C | 90% | 1012.1 hPa | 0.25 mm | - | 0 W/m² | - |
* Rain latest hour (hover to see other rain measurements)
** Current wind speed in m/s (hover to see current wind gust speed)